Dewpoint
67 69 69 70 70 71 71 71 71 70 70 69 69 66 67 69 69 65 65 69 73 74 75 74 73 69 67 73 76 74 72 72 72 73 72 72 71 71 71 70 68 68 69
69 71 71 70 70 70 68 68 69 70 70 68 66 64 64 68 66 65 67 69 72 75 73 73 73 69 72 75 76 74 72 73 72 73 72 72 71 71 71 69 67 66 68
69 69 68 68 69 69 70 71 71 71 67 65 66 66 65 65 65 66 66 69 73 73 70 70 71 72 73 76 76 74 74 74 73 73 72 71 71 71 70 70 68 67 68
69 68 67 67 69 69 70 69 69 69 68 66 67 66 67 68 68 69 69 70 69 70 69 69 73 73 74 74 75 74 73 74 74 73 72 73 71 70 70 70 70 69 69
68 67 66 65 67 70 71 70 68 68 67 67 66 65 63 64 67 69 69 70 68 68 67 67 70 71 73 74 75 73 73 74 74 74 73 72 71 71 70 70 69 69 68
69 66 66 65 67 69 70 70 68 69 67 66 61 61 65 66 68 67 67 67 67 68 69 70 71 72 73 74 74 74 74 74 75 74 73 72 72 71 70 70 70 69 69
70 66 65 65 67 68 69 69 70 67 65 68 63 64 65 66 67 67 66 68 67 67 69 70 72 73 73 73 72 74 74 74 74 74 74 73 73 72 71 71 71 70 69
69 65 65 67 68 68 68 69 69 67 66 66 65 64 60 62 65 63 64 65 66 68 69 69 70 72 71 73 72 74 73 74 74 74 75 73 73 72 71 72 71 70 69
71 70 66 64 67 67 65 66 68 65 64 64 67 62 62 62 61 64 66 66 67 68 68 70 69 71 72 73 72 72 73 73 75 74 74 74 73 73 72 71 71 71 69
70 68 67 65 68 68 65 69 69 67 65 64 66 67 66 64 63 62 67 69 69 67 67 69 70 71 71 72 72 71 71 71 73 74 74 74 73 73 73 72 71 71 70
70 69 68 67 69 70 70 69 72 68 68 67 67 67 67 67 66 66 62 66 67 67 69 71 70 72 71 72 72 71 71 70 70 71 72 73 74 74 73 73 72 72 71
71 71 70 70 69 71 71 73 73 70 71 69 68 67 68 68 67 67 65 65 64 65 69 72 71 73 73 72 71 70 69 69 69 68 68 69 70 71 73 74 73 73 72
70 71 71 70 70 71 72 72 72 71 72 71 69 69 70 70 69 68 67 65 64 64 65 71 72 72 72 72 70 69 68 67 67 66 66 67 67 68 69 71 74 74 73
71 72 72 72 71 72 73 72 72 72 72 72 72 71 70 70 71 69 67 67 65 64 64 67 71 72 73 72 69 67 67 66 66 65 65 65 65 66 67 69 70 73 74
71 71 72 72 72 72 73 73 72 72 72 72 71 71 72 71 71 70 69 69 68 64 64 66 68 72 73 72 70 68 67 65 65 64 64 64 64 65 67 69 70 71 72
71 72 71 71 70 69 72 73 72 72 72 72 71 71 71 71 72 71 72 71 70 69 64 69 70 72 73 71 70 68 67 65 64 63 63 63 64 64 65 66 67 68 69
71 71 70 69 69 69 69 72 72 72 71 72 71 71 71 72 71 72 72 71 71 70 67 69 71 72 72 71 69 67 65 65 63 63 63 62 62 63 63 64 64 65 66
71 71 70 69 69 71 72 72 71 72 72 71 72 71 71 71 71 72 72 71 71 71 70 69 70 71 71 71 69 66 66 64 62 61 61 61 61 61 61 61 61 61 62
71 71 71 70 70 71 72 73 72 72 72 72 72 72 72 71 72 72 71 71 71 70 71 69 69 70 71 70 68 67 65 64 60 60 60 60 60 60 59 59 59 58 57
71 71 70 70 69 71 72 72 72 72 72 72 73 72 72 72 71 71 71 72 71 71 71 70 70 70 70 71 69 67 65 64 63 59 58 59 58 58 58 58 59 58 57
70 70 71 72 71 72 72 71 71 71 71 71 72 72 72 72 69 69 72 72 71 70 70 70 69 69 69 69 68 69 67 66 65 63 60 59 55 55 54 56 57 58 56
71 71 71 71 71 71 68 67 70 72 71 71 71 71 71 70 68 65 65 67 68 70 70 69 69 68 68 68 69 69 67 65 65 64 59 61 59 54 52 56 57 56 55
71 71 71 71 71 70 64 65 67 70 70 70 70 70 71 65 64 65 65 65 63 61 63 68 68 64 66 61 63 67 67 67 67 63 61 60 59 56 53 52 56 55 54
70 71 70 70 68 64 62 62 64 69 68 65 63 63 63 62 61 62 65 65 59 58 59 57 57 57 58 60 61 65 65 63 61 60 62 58 55 54 54 53 53 53 52
69 68 67 66 65 63 61 60 65 68 62 60 59 60 60 60 58 59 66 61 58 56 57 57 58 57 57 57 58 61 60 63 61 58 60 58 55 53 53 54 54 52 52
64 63 62 62 62 63 58 59 63 64 61 61 60 59 58 57 55 58 64 61 58 58 58 59 58 57 57 56 56 57 58 58 59 58 59 60 56 55 51 49 53 53 52
Lifted_Index
-3 -3 -3 -3 -3 -3 -3 -3 -3 -3 -3 -3 -2 -2 -2 -3 -4 -3 -3 -3 -4 -5 -6 -6 -5 -4 -4 -6 -7 -6 -5 -5 -5 -6 -7 -7 -6 -6 -6 -4 -1 0 1
-4 -4 -3 -3 -3 -3 -3 -3 -3 -3 -3 -3 -3 -2 -3 -3 -4 -3 -3 -3 -4 -5 -5 -5 -4 -4 -5 -6 -7 -6 -5 -5 -5 -6 -6 -6 -6 -5 -5 -3 -1 1 2
-4 -3 -3 -3 -2 -2 -3 -3 -3 -3 -3 -3 -3 -3 -3 -4 -4 -3 -3 -3 -4 -4 -3 -3 -4 -5 -5 -6 -6 -6 -5 -5 -5 -5 -6 -5 -5 -4 -3 -2 0 1 2
-3 -3 -3 -2 -2 -2 -3 -3 -3 -3 -3 -3 -3 -3 -4 -4 -4 -3 -3 -3 -2 -1 -1 -2 -3 -4 -5 -6 -6 -5 -5 -5 -5 -5 -5 -5 -4 -3 -2 -1 1 1 2
-3 -3 -2 -2 -2 -2 -2 -3 -3 -3 -3 -3 -3 -3 -4 -4 -4 -3 -2 -2 -1 -0 -0 -1 -2 -3 -4 -5 -6 -5 -5 -5 -5 -5 -4 -4 -3 -3 -2 -0 1 1 2
-3 -2 -1 -1 -1 -1 -2 -3 -3 -3 -3 -3 -3 -3 -4 -4 -3 -2 -1 -1 -0 -0 -0 -1 -2 -3 -4 -5 -5 -5 -5 -5 -5 -4 -4 -3 -3 -2 -1 -0 1 1 2
-2 -2 -1 0 0 -1 -2 -2 -3 -2 -2 -3 -3 -2 -2 -2 -2 -1 -0 -0 -0 -0 -1 -1 -2 -3 -3 -4 -4 -4 -5 -5 -5 -5 -4 -3 -3 -2 -1 -0 0 1 1
-2 -2 -1 0 0 -0 -1 -2 -2 -2 -2 -2 -2 -1 -1 -1 -1 -1 -1 -1 -0 -0 -1 -2 -2 -3 -3 -3 -3 -3 -4 -4 -4 -5 -4 -3 -3 -2 -1 -1 -0 0 1
-3 -2 -1 0 -0 -1 -1 -2 -2 -2 -1 -1 -1 -1 -0 0 -0 -1 -1 -1 -0 -0 -1 -1 -2 -2 -2 -2 -2 -2 -2 -2 -3 -4 -4 -4 -3 -2 -2 -1 -1 0 1
-3 -2 -1 -0 -1 -2 -2 -3 -2 -2 -2 -2 -1 -1 -1 -0 -0 -0 -1 -0 -0 -0 -1 -1 -2 -2 -2 -1 -1 -1 -1 -1 -1 -2 -3 -3 -3 -3 -2 -2 -1 -1 -0
-3 -3 -2 -2 -2 -3 -3 -3 -3 -3 -3 -2 -2 -2 -1 -1 -1 -0 -0 -1 -0 -0 -1 -2 -2 -1 -1 -1 -0 -0 0 0 0 -0 -1 -1 -2 -2 -2 -2 -2 -1 -1
-3 -3 -3 -3 -3 -3 -4 -4 -4 -4 -3 -3 -3 -2 -2 -2 -1 -1 -1 -1 -1 -0 -1 -2 -2 -1 -1 -1 -0 0 0 1 1 1 1 1 0 -0 -1 -2 -2 -2 -1
-2 -3 -3 -3 -3 -3 -4 -4 -4 -4 -3 -3 -3 -2 -2 -2 -2 -2 -1 -1 -1 -0 -1 -1 -1 -2 -1 -1 -0 0 0 0 1 1 1 1 1 1 0 -1 -1 -2 -2
-2 -3 -3 -3 -3 -3 -4 -4 -4 -3 -3 -3 -3 -3 -2 -2 -2 -2 -2 -2 -1 -1 -0 -0 -1 -1 -1 -1 0 0 0 0 1 1 1 1 1 1 1 0 -0 -2 -2
-3 -3 -3 -3 -4 -4 -3 -3 -3 -3 -3 -3 -3 -2 -2 -2 -2 -2 -2 -2 -1 -1 -1 -1 -1 -1 -1 -1 -0 -0 -0 0 1 1 2 1 1 1 1 1 0 -1 -2
-3 -3 -3 -4 -4 -3 -3 -3 -3 -3 -3 -3 -3 -3 -2 -2 -2 -2 -2 -2 -1 -1 -1 -1 -1 -1 -1 -1 -1 -1 -1 -0 0 1 1 2 2 1 1 1 0 -0 -1
-4 -4 -3 -3 -3 -3 -3 -3 -3 -3 -3 -3 -3 -3 -2 -2 -2 -2 -2 -2 -1 -1 -1 -1 -1 -2 -2 -1 -1 -1 -1 -1 -0 0 1 2 2 1 1 1 0 0 -0
-4 -4 -3 -3 -2 -2 -2 -3 -3 -3 -3 -3 -3 -3 -2 -2 -2 -2 -2 -1 -1 -1 -2 -2 -2 -2 -2 -1 -1 -1 -1 -1 -1 -0 0 1 2 2 2 2 1 1 1
-3 -3 -3 -2 -2 -2 -3 -3 -3 -3 -3 -3 -3 -3 -2 -2 -2 -2 -2 -2 -2 -1 -1 -2 -2 -2 -1 -1 -1 -0 -0 -0 -0 -0 0 1 1 2 3 3 3 3 3
-3 -3 -3 -3 -3 -3 -3 -3 -3 -3 -3 -3 -3 -3 -2 -2 -2 -2 -2 -2 -2 -2 -1 -1 -1 -1 -1 -1 -1 -0 0 -0 -0 -0 0 1 1 2 3 3 4 5 5
-3 -3 -3 -3 -3 -3 -3 -3 -3 -3 -3 -2 -2 -2 -2 -2 -2 -2 -2 -2 -2 -2 -1 -1 -1 -1 -1 -0 -0 -0 0 -0 -0 -0 0 1 1 1 2 3 4 6 7
-2 -2 -2 -3 -3 -3 -3 -3 -3 -3 -3 -2 -2 -2 -2 -2 -2 -2 -1 -1 -1 -1 -1 -0 0 0 0 0 0 0 -0 -1 -1 -0 -0 0 0 1 1 3 4 6 7
-2 -2 -2 -2 -2 -3 -3 -3 -3 -3 -2 -2 -2 -2 -2 -2 -2 -1 -1 -0 -0 0 1 1 1 1 1 1 1 0 -0 -1 -1 -1 -0 -0 -0 0 1 3 4 6 7
-2 -2 -2 -2 -3 -3 -3 -3 -2 -2 -2 -2 -2 -2 -2 -1 -1 -1 -0 0 1 1 1 2 2 2 2 2 1 1 0 -1 -1 -1 -0 0 0 1 1 2 4 6 7
-3 -3 -2 -2 -2 -2 -2 -2 -2 -2 -2 -2 -2 -2 -1 -1 -1 -0 -0 0 1 1 1 2 2 2 2 2 2 2 1 0 -0 0 1 1 2 2 2 3 4 5 6
-3 -3 -3 -2 -2 -2 -2 -1 -1 -2 -2 -2 -2 -1 -1 -0 -0 -0 0 0 1 1 1 2 2 3 3 3 3 2 2 1 0 1 2 2 3 3 3 3 4 5 6